Time,TemperatureF,DewpointF,PressureIn,WindDirection,WindDirectionDegrees,WindSpeedMPH,WindSpeedGustMPH,Humidity,HourlyPrecipIn,Conditions,Clouds,dailyrainin,SoftwareType,DateUTC
2013-01-16 00:00:00,32.6,10.4,30.51,SSE,163,0.0,0.0,39,0.00,,---,0.00,VWS V14.01,2013-01-16 08:00:00,
2013-01-16 00:05:00,32.6,10.4,30.51,SSW,212,0.0,0.0,39,0.00,,---,0.00,VWS V14.01,2013-01-16 08:05:00,
2013-01-16 00:10:00,32.4,10.2,30.51,SSW,207,0.0,0.0,39,0.00,,---,0.00,VWS V14.01,2013-01-16 08:10:00,
2013-01-16 00:15:00,32.4,10.2,30.51,SSE,153,0.0,0.0,39,0.00,,---,0.00,VWS V14.01,2013-01-16 08:15:00,
2013-01-16 00:20:00,32.8,10.0,30.52,SE,135,3.0,4.0,38,0.00,,---,0.00,VWS V14.01,2013-01-16 08:20:00,
2013-01-16 00:25:00,33.1,9.7,30.51,SE,131,0.0,4.0,37,0.00,,---,0.00,VWS V14.01,2013-01-16 08:25:00,
2013-01-16 00:30:00,33.5,8.8,30.51,SE,142,0.0,4.0,35,0.00,,---,0.00,VWS V14.01,2013-01-16 08:30:00,
2013-01-16 00:35:00,33.7,9.0,30.51,South,170,0.0,4.0,35,0.00,,---,0.00,VWS V14.01,2013-01-16 08:35:00,
2013-01-16 00:40:00,33.5,8.8,30.51,SE,129,2.0,4.0,35,0.00,,---,0.00,VWS V14.01,2013-01-16 08:40:00,
2013-01-16 00:45:00,33.4,8.7,30.51,SE,142,2.0,4.0,35,0.00,,---,0.00,VWS V14.01,2013-01-16 08:45:00,
2013-01-16 00:50:00,33.5,8.8,30.51,SE,131,1.0,4.0,35,0.00,,---,0.00,VWS V14.01,2013-01-16 08:50:00,
2013-01-16 00:55:00,33.6,8.2,30.51,SSE,153,2.0,4.0,34,0.00,,---,0.00,VWS V14.01,2013-01-16 08:55:00,
2013-01-16 01:00:00,34.2,8.1,30.51,SE,133,2.0,4.0,33,0.00,,---,0.00,VWS V14.01,2013-01-16 09:00:00,
2013-01-16 01:05:00,34.1,8.7,30.51,SSE,158,0.0,4.0,34,0.00,,---,0.00,VWS V14.01,2013-01-16 09:05:00,
2013-01-16 01:10:00,33.5,8.8,30.51,SE,142,0.0,4.0,35,0.00,,---,0.00,VWS V14.01,2013-01-16 09:10:00,
2013-01-16 01:15:00,33.1,8.4,30.50,SSE,149,0.0,4.0,35,0.00,,---,0.00,VWS V14.01,2013-01-16 09:15:00,
2013-01-16 01:20:00,32.9,8.9,30.50,South,180,0.0,4.0,36,0.00,,---,0.00,VWS V14.01,2013-01-16 09:20:00,
2013-01-16 01:25:00,32.6,8.6,30.50,SSE,163,2.0,4.0,36,0.00,,---,0.00,VWS V14.01,2013-01-16 09:25:00,
2013-01-16 01:30:00,32.4,9.1,30.50,SE,142,0.0,4.0,37,0.00,,---,0.00,VWS V14.01,2013-01-16 09:30:00,
2013-01-16 01:35:00,32.5,8.5,30.50,SE,131,0.0,4.0,36,0.00,,---,0.00,VWS V14.01,2013-01-16 09:35:00,
2013-01-16 01:40:00,33.4,8.7,30.50,SSE,158,0.0,4.0,35,0.00,,---,0.00,VWS V14.01,2013-01-16 09:40:00,
2013-01-16 01:45:00,33.2,9.1,30.50,South,174,0.0,4.0,36,0.00,,---,0.00,VWS V14.01,2013-01-16 09:45:00,
2013-01-16 01:50:00,32.5,9.1,30.50,South,176,0.0,4.0,37,0.00,,---,0.00,VWS V14.01,2013-01-16 09:50:00,
2013-01-16 01:55:00,32.1,9.4,30.50,SSE,159,3.0,4.0,38,0.00,,---,0.00,VWS V14.01,2013-01-16 09:55:00,
2013-01-16 02:00:00,31.7,9.6,30.51,South,184,0.0,0.0,39,0.00,,---,0.00,VWS V14.01,2013-01-16 10:00:00,
2013-01-16 02:05:00,31.2,9.7,30.50,SSW,200,2.0,3.0,40,0.00,,---,0.00,VWS V14.01,2013-01-16 10:05:00,
2013-01-16 02:11:00,30.8,10.4,30.50,SW,220,0.0,3.0,42,0.00,,---,0.00,VWS V14.01,2013-01-16 10:11:00,
2013-01-16 02:16:00,30.8,11.0,30.51,SSE,163,0.0,3.0,43,0.00,,---,0.00,VWS V14.01,2013-01-16 10:16:00,
2013-01-16 02:21:00,31.4,11.5,30.51,SSE,162,0.0,3.0,43,0.00,,---,0.00,VWS V14.01,2013-01-16 10:21:00,
2013-01-16 02:26:00,31.7,11.8,30.50,SSE,152,0.0,3.0,43,0.00,,---,0.00,VWS V14.01,2013-01-16 10:26:00,
2013-01-16 02:31:00,31.3,11.4,30.51,SSW,199,0.0,3.0,43,0.00,,---,0.00,VWS V14.01,2013-01-16 10:31:00,
2013-01-16 02:36:00,30.8,11.0,30.51,SSE,148,0.0,3.0,43,0.00,,---,0.00,VWS V14.01,2013-01-16 10:36:00,
2013-01-16 02:41:00,30.3,11.5,30.51,SSW,197,0.0,3.0,45,0.00,,---,0.00,VWS V14.01,2013-01-16 10:41:00,
2013-01-16 02:46:00,31.0,12.2,30.51,SSE,163,0.0,3.0,45,0.00,,---,0.00,VWS V14.01,2013-01-16 10:46:00,
2013-01-16 02:51:00,31.3,11.9,30.51,South,191,1.0,3.0,44,0.00,,---,0.00,VWS V14.01,2013-01-16 10:51:00,
2013-01-16 02:56:00,31.2,12.4,30.51,SSE,162,1.0,3.0,45,0.00,,---,0.00,VWS V14.01,2013-01-16 10:56:00,
2013-01-16 03:01:00,31.4,12.5,30.51,SSE,162,0.0,0.0,45,0.00,,---,0.00,VWS V14.01,2013-01-16 11:01:00,
2013-01-16 03:06:00,31.0,12.2,30.51,SSE,162,0.0,0.0,45,0.00,,---,0.00,VWS V14.01,2013-01-16 11:06:00,
2013-01-16 03:11:00,31.1,12.2,30.51,South,184,0.0,0.0,45,0.00,,---,0.00,VWS V14.01,2013-01-16 11:11:00,
2013-01-16 03:16:00,30.8,12.5,30.51,SSE,150,0.0,0.0,46,0.00,,---,0.00,VWS V14.01,2013-01-16 11:16:00,
2013-01-16 03:21:00,30.5,12.7,30.50,SSE,162,0.0,0.0,47,0.00,,---,0.00,VWS V14.01,2013-01-16 11:21:00,
2013-01-16 03:26:00,30.8,12.5,30.51,SSE,167,0.0,0.0,46,0.00,,---,0.00,VWS V14.01,2013-01-16 11:26:00,
2013-01-16 03:31:00,31.1,12.8,30.51,SSE,150,3.0,3.0,46,0.00,,---,0.00,VWS V14.01,2013-01-16 11:31:00,
2013-01-16 03:36:00,31.2,12.4,30.51,SE,142,0.0,3.0,45,0.00,,---,0.00,VWS V14.01,2013-01-16 11:36:00,
2013-01-16 03:41:00,31.2,12.4,30.50,SE,124,0.0,3.0,45,0.00,,---,0.00,VWS V14.01,2013-01-16 11:41:00,
2013-01-16 03:46:00,31.0,12.2,30.50,ESE,113,0.0,3.0,45,0.00,,---,0.00,VWS V14.01,2013-01-16 11:46:00,
2013-01-16 03:51:00,31.0,11.7,30.50,SE,146,0.0,3.0,44,0.00,,---,0.00,VWS V14.01,2013-01-16 11:51:00,
2013-01-16 03:56:00,31.0,11.7,30.50,SSW,201,0.0,3.0,44,0.00,,---,0.00,VWS V14.01,2013-01-16 11:56:00,
2013-01-16 04:01:00,30.6,11.8,30.50,SSE,165,2.0,2.0,45,0.00,,---,0.00,VWS V14.01,2013-01-16 12:01:00,
2013-01-16 04:06:00,30.6,11.3,30.50,SSE,152,3.0,4.0,44,0.00,,---,0.00,VWS V14.01,2013-01-16 12:06:00,
2013-01-16 04:11:00,30.9,11.1,30.50,South,169,0.0,4.0,43,0.00,,---,0.00,VWS V14.01,2013-01-16 12:11:00,
2013-01-16 04:16:00,31.1,10.7,30.50,SE,131,0.0,4.0,42,0.00,,---,0.00,VWS V14.01,2013-01-16 12:16:00,
2013-01-16 04:21:00,31.3,10.3,30.50,SSE,167,0.0,4.0,41,0.00,,---,0.00,VWS V14.01,2013-01-16 12:21:00,
2013-01-16 04:26:00,31.5,10.5,30.50,South,172,4.0,4.0,41,0.00,,---,0.00,VWS V14.01,2013-01-16 12:26:00,
2013-01-16 04:31:00,31.7,10.7,30.50,South,173,2.0,5.0,41,0.00,,---,0.00,VWS V14.01,2013-01-16 12:31:00,
2013-01-16 04:36:00,31.7,10.1,30.50,SSW,194,3.0,5.0,40,0.00,,---,0.00,VWS V14.01,2013-01-16 12:36:00,
2013-01-16 04:41:00,31.8,10.2,30.50,SSW,193,0.0,5.0,40,0.00,,---,0.00,VWS V14.01,2013-01-16 12:41:00,
2013-01-16 04:46:00,32.0,10.4,30.50,SSW,201,0.0,5.0,40,0.00,,---,0.00,VWS V14.01,2013-01-16 12:46:00,
2013-01-16 04:51:00,32.2,10.6,30.49,SSW,193,0.0,5.0,40,0.00,,---,0.00,VWS V14.01,2013-01-16 12:51:00,
2013-01-16 04:56:00,31.8,10.8,30.50,SSE,150,0.0,5.0,41,0.00,,---,0.00,VWS V14.01,2013-01-16 12:56:00,
2013-01-16 05:01:00,31.5,10.5,30.50,SSE,148,0.0,0.0,41,0.00,,---,0.00,VWS V14.01,2013-01-16 13:01:00,
2013-01-16 05:06:00,31.6,10.6,30.50,SSE,152,2.0,3.0,41,0.00,,---,0.00,VWS V14.01,2013-01-16 13:06:00,
2013-01-16 05:11:00,31.7,10.7,30.50,SSE,163,1.0,3.0,41,0.00,,---,0.00,VWS V14.01,2013-01-16 13:11:00,
2013-01-16 05:16:00,31.7,10.7,30.50,SE,134,3.0,4.0,41,0.00,,---,0.00,VWS V14.01,2013-01-16 13:16:00,
2013-01-16 05:21:00,31.7,10.1,30.50,SE,132,2.0,4.0,40,0.00,,---,0.00,VWS V14.01,2013-01-16 13:21:00,
2013-01-16 05:26:00,31.6,10.1,30.50,SSE,155,0.0,4.0,40,0.00,,---,0.00,VWS V14.01,2013-01-16 13:26:00,
2013-01-16 05:31:00,31.6,9.5,30.50,SSE,153,0.0,4.0,39,0.00,,---,0.00,VWS V14.01,2013-01-16 13:31:00,
2013-01-16 05:36:00,32.0,9.3,30.50,SE,139,0.0,4.0,38,0.00,,---,0.00,VWS V14.01,2013-01-16 13:36:00,
2013-01-16 05:41:00,32.2,9.5,30.50,SE,133,1.0,4.0,38,0.00,,---,0.00,VWS V14.01,2013-01-16 13:41:00,
2013-01-16 05:46:00,32.2,9.5,30.50,SE,131,0.0,4.0,38,0.00,,---,0.00,VWS V14.01,2013-01-16 13:46:00,
2013-01-16 05:52:00,32.0,9.9,30.50,SE,142,0.0,4.0,39,0.00,,---,0.00,VWS V14.01,2013-01-16 13:52:00,
2013-01-16 05:57:00,31.8,9.7,30.51,South,186,0.0,4.0,39,0.00,,---,0.00,VWS V14.01,2013-01-16 13:57:00,
2013-01-16 06:02:00,31.1,9.6,30.51,SSE,155,3.0,3.0,40,0.00,,---,0.00,VWS V14.01,2013-01-16 14:02:00,
2013-01-16 06:07:00,31.2,9.1,30.51,SSE,148,1.0,3.0,39,0.00,,---,0.00,VWS V14.01,2013-01-16 14:07:00,
2013-01-16 06:12:00,31.7,9.0,30.51,SSE,153,0.0,3.0,38,0.00,,---,0.00,VWS V14.01,2013-01-16 14:12:00,
2013-01-16 06:17:00,32.1,9.4,30.51,SE,136,0.0,3.0,38,0.00,,---,0.00,VWS V14.01,2013-01-16 14:17:00,
2013-01-16 06:22:00,32.1,9.4,30.51,SE,142,2.0,4.0,38,0.00,,---,0.00,VWS V14.01,2013-01-16 14:22:00,
2013-01-16 06:27:00,32.0,9.3,30.51,SE,136,0.0,4.0,38,0.00,,---,0.00,VWS V14.01,2013-01-16 14:27:00,
2013-01-16 06:32:00,31.7,9.6,30.51,SE,132,0.0,4.0,39,0.00,,---,0.00,VWS V14.01,2013-01-16 14:32:00,
2013-01-16 06:37:00,31.8,9.1,30.51,SSE,150,0.0,4.0,38,0.00,,---,0.00,VWS V14.01,2013-01-16 14:37:00,
2013-01-16 06:42:00,32.7,9.3,30.51,SE,131,0.0,4.0,37,0.00,,---,0.00,VWS V14.01,2013-01-16 14:42:00,
2013-01-16 06:47:00,32.8,8.8,30.51,South,170,0.0,4.0,36,0.00,,---,0.00,VWS V14.01,2013-01-16 14:47:00,
2013-01-16 06:52:00,32.4,9.6,30.51,SSE,162,0.0,4.0,38,0.00,,---,0.00,VWS V14.01,2013-01-16 14:52:00,
2013-01-16 06:57:00,31.9,9.8,30.52,South,174,0.0,4.0,39,0.00,,---,0.00,VWS V14.01,2013-01-16 14:57:00,
2013-01-16 07:02:00,31.9,9.8,30.52,SE,134,0.0,0.0,39,0.00,,---,0.00,VWS V14.01,2013-01-16 15:02:00,
2013-01-16 07:07:00,30.8,10.4,30.52,SE,136,0.0,0.0,42,0.00,,---,0.00,VWS V14.01,2013-01-16 15:07:00,
2013-01-16 07:12:00,31.2,9.7,30.52,ESE,104,0.0,0.0,40,0.00,,---,0.00,VWS V14.01,2013-01-16 15:12:00,
2013-01-16 07:17:00,31.6,10.1,30.52,SE,136,0.0,0.0,40,0.00,,---,0.00,VWS V14.01,2013-01-16 15:17:00,
2013-01-16 07:22:00,31.7,11.2,30.52,SE,137,0.0,0.0,42,0.00,,---,0.00,VWS V14.01,2013-01-16 15:22:00,
2013-01-16 07:27:00,32.1,11.1,30.52,SE,134,0.0,0.0,41,0.00,,---,0.00,VWS V14.01,2013-01-16 15:27:00,
2013-01-16 07:32:00,32.4,11.3,30.52,SE,133,0.0,0.0,41,0.00,,---,0.00,VWS V14.01,2013-01-16 15:32:00,
2013-01-16 07:37:00,32.7,11.1,30.53,SE,131,0.0,0.0,40,0.00,,---,0.00,VWS V14.01,2013-01-16 15:37:00,
2013-01-16 07:42:00,33.3,10.4,30.53,SE,131,0.0,0.0,38,0.00,,---,0.00,VWS V14.01,2013-01-16 15:42:00,
2013-01-16 07:47:00,33.6,11.3,30.53,SE,127,0.0,0.0,39,0.00,,---,0.00,VWS V14.01,2013-01-16 15:47:00,
2013-01-16 07:52:00,34.1,11.8,30.53,SE,128,0.0,0.0,39,0.00,,---,0.00,VWS V14.01,2013-01-16 15:52:00,
2013-01-16 07:57:00,34.2,11.8,30.53,SE,128,0.0,0.0,39,0.00,,---,0.00,VWS V14.01,2013-01-16 15:57:00,
2013-01-16 08:02:00,34.1,12.3,30.53,SE,127,0.0,0.0,40,0.00,,---,0.00,VWS V14.01,2013-01-16 16:02:00,
2013-01-16 08:07:00,34.3,12.5,30.53,ESE,103,0.0,0.0,40,0.00,,---,0.00,VWS V14.01,2013-01-16 16:07:00,
2013-01-16 08:12:00,35.4,12.9,30.53,ESE,103,0.0,0.0,39,0.00,,---,0.00,VWS V14.01,2013-01-16 16:12:00,
2013-01-16 08:17:00,35.8,12.7,30.53,ESE,103,0.0,0.0,38,0.00,,---,0.00,VWS V14.01,2013-01-16 16:17:00,
2013-01-16 08:22:00,35.6,12.5,30.53,ESE,103,0.0,0.0,38,0.00,,---,0.00,VWS V14.01,2013-01-16 16:22:00,
2013-01-16 08:27:00,37.0,13.8,30.54,SE,139,0.0,0.0,38,0.00,,---,0.00,VWS V14.01,2013-01-16 16:27:00,
2013-01-16 08:32:00,38.3,13.1,30.54,ESE,104,0.0,0.0,35,0.00,,---,0.00,VWS V14.01,2013-01-16 16:32:00,
2013-01-16 08:37:00,38.6,12.7,30.54,ESE,110,0.0,0.0,34,0.00,,---,0.00,VWS V14.01,2013-01-16 16:37:00,
2013-01-16 08:42:00,39.5,12.8,30.54,ESE,122,0.0,0.0,33,0.00,,---,0.00,VWS V14.01,2013-01-16 16:42:00,
2013-01-16 08:47:00,39.7,12.3,30.53,ESE,105,0.0,2.0,32,0.00,,---,0.00,VWS V14.01,2013-01-16 16:47:00,
2013-01-16 08:52:00,40.2,12.7,30.54,SE,139,0.0,2.0,32,0.00,,---,0.00,VWS V14.01,2013-01-16 16:52:00,
2013-01-16 08:57:00,41.3,13.0,30.54,SE,133,0.0,2.0,31,0.00,,---,0.00,VWS V14.01,2013-01-16 16:57:00,
2013-01-16 09:02:00,41.8,12.7,30.54,ESE,114,0.0,0.0,30,0.00,,---,0.00,VWS V14.01,2013-01-16 17:02:00,
2013-01-16 09:07:00,41.3,12.2,30.53,East,86,0.0,0.0,30,0.00,,---,0.00,VWS V14.01,2013-01-16 17:07:00,
2013-01-16 09:12:00,41.0,12.7,30.53,West,263,0.0,0.0,31,0.00,,---,0.00,VWS V14.01,2013-01-16 17:12:00,
2013-01-16 09:17:00,41.1,12.8,30.53,ESE,104,1.0,4.0,31,0.00,,---,0.00,VWS V14.01,2013-01-16 17:17:00,
2013-01-16 09:22:00,40.9,12.6,30.53,ENE,67,1.0,4.0,31,0.00,,---,0.00,VWS V14.01,2013-01-16 17:22:00,
2013-01-16 09:27:00,41.2,12.9,30.53,ESE,114,3.0,4.0,31,0.00,,---,0.00,VWS V14.01,2013-01-16 17:27:00,
2013-01-16 09:32:00,41.2,12.9,30.53,ESE,103,1.0,4.0,31,0.00,,---,0.00,VWS V14.01,2013-01-16 17:32:00,
2013-01-16 09:37:00,41.7,12.6,30.53,East,96,1.0,4.0,30,0.00,,---,0.00,VWS V14.01,2013-01-16 17:37:00,
2013-01-16 09:42:00,41.8,12.7,30.52,ENE,70,0.0,4.0,30,0.00,,---,0.00,VWS V14.01,2013-01-16 17:42:00,
2013-01-16 09:47:00,41.9,12.7,30.52,NNE,30,3.0,6.0,30,0.00,,---,0.00,VWS V14.01,2013-01-16 17:47:00,
2013-01-16 09:52:00,41.6,12.5,30.52,NE,49,3.0,7.0,30,0.00,,---,0.00,VWS V14.01,2013-01-16 17:52:00,
2013-01-16 09:57:00,41.7,13.3,30.52,NE,51,4.0,7.0,31,0.00,,---,0.00,VWS V14.01,2013-01-16 17:57:00,
2013-01-16 10:02:00,41.9,12.7,30.52,ENE,65,1.0,4.0,30,0.00,,---,0.00,VWS V14.01,2013-01-16 18:02:00,
2013-01-16 10:07:00,41.8,13.4,30.52,NE,49,5.0,6.0,31,0.00,,---,0.00,VWS V14.01,2013-01-16 18:07:00,
2013-01-16 10:12:00,42.2,13.0,30.51,North,8,3.0,6.0,30,0.00,,---,0.00,VWS V14.01,2013-01-16 18:12:00,
2013-01-16 10:17:00,42.5,13.3,30.51,North,352,3.0,6.0,30,0.00,,---,0.00,VWS V14.01,2013-01-16 18:17:00,
2013-01-16 10:22:00,42.7,13.4,30.51,NNE,13,3.0,6.0,30,0.00,,---,0.00,VWS V14.01,2013-01-16 18:22:00,
2013-01-16 10:27:00,43.0,13.7,30.51,NNE,27,6.0,7.0,30,0.00,,---,0.00,VWS V14.01,2013-01-16 18:27:00,
2013-01-16 10:32:00,43.1,13.8,30.50,North,360,6.0,7.0,30,0.00,,---,0.00,VWS V14.01,2013-01-16 18:32:00,
2013-01-16 10:37:00,43.2,13.9,30.50,NNE,12,6.0,7.0,30,0.00,,---,0.00,VWS V14.01,2013-01-16 18:37:00,
2013-01-16 10:42:00,43.8,13.6,30.50,NW,321,6.0,7.0,29,0.00,,---,0.00,VWS V14.01,2013-01-16 18:42:00,
2013-01-16 10:47:00,44.1,14.7,30.49,NNE,28,4.0,7.0,30,0.00,,---,0.00,VWS V14.01,2013-01-16 18:47:00,
2013-01-16 10:52:00,44.7,14.4,30.49,North,5,4.0,7.0,29,0.00,,---,0.00,VWS V14.01,2013-01-16 18:52:00,
2013-01-16 10:57:00,45.4,15.0,30.49,NNE,27,2.0,7.0,29,0.00,,---,0.00,VWS V14.01,2013-01-16 18:57:00,
2013-01-16 11:03:00,45.9,15.4,30.49,NNE,21,4.0,8.0,29,0.00,,---,0.00,VWS V14.01,2013-01-16 19:03:00,
2013-01-16 11:08:00,46.2,15.7,30.48,NNE,32,3.0,8.0,29,0.00,,---,0.00,VWS V14.01,2013-01-16 19:08:00,
2013-01-16 11:13:00,46.5,16.8,30.48,NE,55,4.0,8.0,30,0.00,,---,0.00,VWS V14.01,2013-01-16 19:13:00,
2013-01-16 11:18:00,47.2,17.4,30.47,North,360,5.0,10.0,30,0.00,,---,0.00,VWS V14.01,2013-01-16 19:18:00,
2013-01-16 11:23:00,47.7,17.8,30.47,NNE,23,8.0,10.0,30,0.00,,---,0.00,VWS V14.01,2013-01-16 19:23:00,
2013-01-16 11:28:00,48.2,19.0,30.46,NE,47,8.0,10.0,31,0.00,,---,0.00,VWS V14.01,2013-01-16 19:28:00,
2013-01-16 11:33:00,48.7,19.4,30.45,NE,47,9.0,13.0,31,0.00,,---,0.00,VWS V14.01,2013-01-16 19:33:00,
2013-01-16 11:38:00,49.1,19.8,30.45,NNE,27,8.0,13.0,31,0.00,,---,0.00,VWS V14.01,2013-01-16 19:38:00,
2013-01-16 11:43:00,49.5,20.1,30.44,NE,46,8.0,14.0,31,0.00,,---,0.00,VWS V14.01,2013-01-16 19:43:00,
2013-01-16 11:48:00,49.8,20.4,30.44,NE,53,3.0,14.0,31,0.00,,---,0.00,VWS V14.01,2013-01-16 19:48:00,
2013-01-16 11:53:00,50.2,20.8,30.44,NE,56,8.0,14.0,31,0.00,,---,0.00,VWS V14.01,2013-01-16 19:53:00,
2013-01-16 11:58:00,50.6,20.3,30.44,NNE,15,6.0,14.0,30,0.00,,---,0.00,VWS V14.01,2013-01-16 19:58:00,
2013-01-16 12:03:00,50.6,20.3,30.43,NE,46,7.0,11.0,30,0.00,,---,0.00,VWS V14.01,2013-01-16 20:03:00,
2013-01-16 12:08:00,50.4,20.1,30.43,NE,44,7.0,12.0,30,0.00,,---,0.00,VWS V14.01,2013-01-16 20:08:00,
2013-01-16 12:13:00,50.7,20.4,30.42,NNE,19,5.0,12.0,30,0.00,,---,0.00,VWS V14.01,2013-01-16 20:13:00,
2013-01-16 12:18:00,51.2,20.9,30.42,NE,48,8.0,13.0,30,0.00,,---,0.00,VWS V14.01,2013-01-16 20:18:00,
2013-01-16 12:23:00,51.4,20.2,30.42,NNE,26,7.0,13.0,29,0.00,,---,0.00,VWS V14.01,2013-01-16 20:23:00,
2013-01-16 12:28:00,51.6,20.4,30.41,NNE,30,3.0,13.0,29,0.00,,---,0.00,VWS V14.01,2013-01-16 20:28:00,
2013-01-16 12:33:00,52.0,20.8,30.41,North,349,3.0,13.0,29,0.00,,---,0.00,VWS V14.01,2013-01-16 20:33:00,
2013-01-16 12:38:00,52.2,21.7,30.40,NE,35,7.0,13.0,30,0.00,,---,0.00,VWS V14.01,2013-01-16 20:38:00,
2013-01-16 12:43:00,52.8,21.4,30.40,NE,45,12.0,14.0,29,0.00,,---,0.00,VWS V14.01,2013-01-16 20:43:00,
2013-01-16 12:48:00,53.3,21.9,30.40,NNE,27,9.0,14.0,29,0.00,,---,0.00,VWS V14.01,2013-01-16 20:48:00,
2013-01-16 12:53:00,53.7,22.2,30.39,NNE,33,17.0,17.0,29,0.00,,---,0.00,VWS V14.01,2013-01-16 20:53:00,
2013-01-16 12:58:00,54.1,21.7,30.39,NE,51,9.0,18.0,28,0.00,,---,0.00,VWS V14.01,2013-01-16 20:58:00,
2013-01-16 13:03:00,54.5,22.1,30.39,ENE,58,11.0,11.0,28,0.00,,---,0.00,VWS V14.01,2013-01-16 21:03:00,
2013-01-16 13:08:00,54.3,21.9,30.38,NE,50,6.0,15.0,28,0.00,,---,0.00,VWS V14.01,2013-01-16 21:08:00,
2013-01-16 13:13:00,54.8,21.5,30.38,NE,51,16.0,16.0,27,0.00,,---,0.00,VWS V14.01,2013-01-16 21:13:00,
2013-01-16 13:18:00,54.9,21.6,30.38,NNE,33,7.0,16.0,27,0.00,,---,0.00,VWS V14.01,2013-01-16 21:18:00,
2013-01-16 13:23:00,54.9,21.6,30.38,NE,41,10.0,16.0,27,0.00,,---,0.00,VWS V14.01,2013-01-16 21:23:00,
2013-01-16 13:28:00,55.0,21.6,30.37,NNE,33,7.0,16.0,27,0.00,,---,0.00,VWS V14.01,2013-01-16 21:28:00,
2013-01-16 13:33:00,55.9,21.5,30.38,NE,46,11.0,17.0,26,0.00,,---,0.00,VWS V14.01,2013-01-16 21:33:00,
2013-01-16 13:38:00,55.5,21.2,30.37,ENE,67,9.0,17.0,26,0.00,,---,0.00,VWS V14.01,2013-01-16 21:38:00,
2013-01-16 13:43:00,55.5,21.2,30.37,NE,41,11.0,17.0,26,0.00,,---,0.00,VWS V14.01,2013-01-16 21:43:00,
2013-01-16 13:50:00,55.2,21.8,30.37,NE,51,9.0,10.0,27,0.00,,---,0.00,VWS V14.01,2013-01-16 21:50:00,
2013-01-16 13:55:00,55.5,21.2,30.37,ENE,57,6.0,11.0,26,0.00,,---,0.00,VWS V14.01,2013-01-16 21:55:00,
2013-01-16 14:00:00,55.3,21.9,30.36,NNE,26,4.0,11.0,27,0.00,,---,0.00,VWS V14.01,2013-01-16 22:00:00,
2013-01-16 14:05:00,55.7,21.4,30.36,NNE,27,7.0,16.0,26,0.00,,---,0.00,VWS V14.01,2013-01-16 22:05:00,
2013-01-16 14:10:00,55.6,21.3,30.36,NE,41,13.0,16.0,26,0.00,,---,0.00,VWS V14.01,2013-01-16 22:10:00,
2013-01-16 14:15:00,55.8,21.5,30.36,NE,53,10.0,16.0,26,0.00,,---,0.00,VWS V14.01,2013-01-16 22:15:00,
2013-01-16 14:20:00,55.8,21.5,30.36,NE,35,12.0,16.0,26,0.00,,---,0.00,VWS V14.01,2013-01-16 22:20:00,
2013-01-16 14:25:00,55.9,21.5,30.36,NE,48,6.0,16.0,26,0.00,,---,0.00,VWS V14.01,2013-01-16 22:25:00,
2013-01-16 14:30:00,56.2,21.8,30.36,NNE,33,8.0,16.0,26,0.00,,---,0.00,VWS V14.01,2013-01-16 22:30:00,
2013-01-16 14:35:00,55.8,21.5,30.35,NE,46,7.0,16.0,26,0.00,,---,0.00,VWS V14.01,2013-01-16 22:35:00,
2013-01-16 14:41:00,55.8,21.5,30.35,NNE,30,8.0,16.0,26,0.00,,---,0.00,VWS V14.01,2013-01-16 22:41:00,
2013-01-16 14:46:00,55.9,21.5,30.35,ENE,77,5.0,16.0,26,0.00,,---,0.00,VWS V14.01,2013-01-16 22:46:00,
2013-01-16 14:51:00,56.0,21.6,30.35,NNE,29,10.0,16.0,26,0.00,,---,0.00,VWS V14.01,2013-01-16 22:51:00,
2013-01-16 14:56:00,55.8,21.5,30.35,NNE,26,6.0,16.0,26,0.00,,---,0.00,VWS V14.01,2013-01-16 22:56:00,
2013-01-16 15:01:00,56.0,21.6,30.35,NE,50,8.0,10.0,26,0.00,,---,0.00,VWS V14.01,2013-01-16 23:01:00,
2013-01-16 15:06:00,56.0,21.6,30.35,NNE,19,8.0,12.0,26,0.00,,---,0.00,VWS V14.01,2013-01-16 23:06:00,
2013-01-16 15:11:00,56.2,21.8,30.35,NE,44,9.0,12.0,26,0.00,,---,0.00,VWS V14.01,2013-01-16 23:11:00,
2013-01-16 15:16:00,56.4,22.0,30.35,NE,35,7.0,12.0,26,0.00,,---,0.00,VWS V14.01,2013-01-16 23:16:00,
2013-01-16 15:21:00,56.3,21.0,30.35,NE,46,9.0,13.0,25,0.00,,---,0.00,VWS V14.01,2013-01-16 23:21:00,
2013-01-16 15:26:00,56.0,21.6,30.35,NNE,26,6.0,13.0,26,0.00,,---,0.00,VWS V14.01,2013-01-16 23:26:00,
2013-01-16 15:31:00,56.2,21.8,30.35,NE,42,7.0,13.0,26,0.00,,---,0.00,VWS V14.01,2013-01-16 23:31:00,
2013-01-16 15:36:00,56.2,21.8,30.35,North,359,6.0,13.0,26,0.00,,---,0.00,VWS V14.01,2013-01-16 23:36:00,
2013-01-16 15:41:00,56.3,21.0,30.35,ENE,73,6.0,13.0,25,0.00,,---,0.00,VWS V14.01,2013-01-16 23:41:00,
2013-01-16 15:46:00,56.5,21.1,30.35,NE,41,6.0,13.0,25,0.00,,---,0.00,VWS V14.01,2013-01-16 23:46:00,
2013-01-16 15:51:00,56.2,21.8,30.35,NE,37,8.0,13.0,26,0.00,,---,0.00,VWS V14.01,2013-01-16 23:51:00,
2013-01-16 15:56:00,56.4,22.0,30.35,NE,53,6.0,13.0,26,0.00,,---,0.00,VWS V14.01,2013-01-16 23:56:00,
2013-01-16 16:01:00,56.3,21.0,30.35,NNE,17,5.0,9.0,25,0.00,,---,0.00,VWS V14.01,2013-01-17 00:01:00,
2013-01-16 16:06:00,56.2,20.9,30.35,North,10,4.0,13.0,25,0.00,,---,0.00,VWS V14.01,2013-01-17 00:06:00,
2013-01-16 16:11:00,56.1,21.7,30.35,NNE,33,10.0,13.0,26,0.00,,---,0.00,VWS V14.01,2013-01-17 00:11:00,
2013-01-16 16:16:00,56.0,21.6,30.35,NE,41,4.0,13.0,26,0.00,,---,0.00,VWS V14.01,2013-01-17 00:16:00,
2013-01-16 16:21:00,56.0,20.7,30.35,NE,38,1.0,13.0,25,0.00,,---,0.00,VWS V14.01,2013-01-17 00:21:00,
2013-01-16 16:26:00,55.9,20.6,30.35,NE,48,5.0,13.0,25,0.00,,---,0.00,VWS V14.01,2013-01-17 00:26:00,
2013-01-16 16:31:00,55.8,21.5,30.35,NE,40,8.0,13.0,26,0.00,,---,0.00,VWS V14.01,2013-01-17 00:31:00,
2013-01-16 16:36:00,55.7,21.4,30.35,North,358,6.0,13.0,26,0.00,,---,0.00,VWS V14.01,2013-01-17 00:36:00,
2013-01-16 16:41:00,55.4,21.1,30.36,North,357,5.0,13.0,26,0.00,,---,0.00,VWS V14.01,2013-01-17 00:41:00,
2013-01-16 16:46:00,54.9,21.6,30.36,North,4,6.0,13.0,27,0.00,,---,0.00,VWS V14.01,2013-01-17 00:46:00,
2013-01-16 16:51:00,54.4,21.1,30.36,NE,39,6.0,13.0,27,0.00,,---,0.00,VWS V14.01,2013-01-17 00:51:00,
2013-01-16 16:56:00,54.0,21.6,30.36,NNE,20,2.0,13.0,28,0.00,,---,0.00,VWS V14.01,2013-01-17 00:56:00,
2013-01-16 17:01:00,53.6,21.3,30.36,North,11,1.0,3.0,28,0.00,,---,0.00,VWS V14.01,2013-01-17 01:01:00,
2013-01-16 17:06:00,53.2,21.0,30.36,NNE,17,1.0,4.0,28,0.00,,---,0.00,VWS V14.01,2013-01-17 01:06:00,
2013-01-16 17:11:00,52.8,21.4,30.36,NNW,342,0.0,4.0,29,0.00,,---,0.00,VWS V14.01,2013-01-17 01:11:00,
2013-01-16 17:16:00,52.4,21.1,30.36,NE,37,0.0,4.0,29,0.00,,---,0.00,VWS V14.01,2013-01-17 01:16:00,
2013-01-16 17:21:00,52.1,20.8,30.36,North,8,0.0,4.0,29,0.00,,---,0.00,VWS V14.01,2013-01-17 01:21:00,
2013-01-16 17:26:00,51.7,21.3,30.36,NNE,33,0.0,4.0,30,0.00,,---,0.00,VWS V14.01,2013-01-17 01:26:00,
2013-01-16 17:31:00,51.6,21.2,30.36,NE,49,0.0,4.0,30,0.00,,---,0.00,VWS V14.01,2013-01-17 01:31:00,
2013-01-16 17:36:00,51.3,20.9,30.36,NE,49,0.0,4.0,30,0.00,,---,0.00,VWS V14.01,2013-01-17 01:36:00,
2013-01-16 17:41:00,51.1,20.8,30.36,NE,49,0.0,4.0,30,0.00,,---,0.00,VWS V14.01,2013-01-17 01:41:00,
2013-01-16 17:46:00,50.9,20.6,30.36,NE,49,0.0,4.0,30,0.00,,---,0.00,VWS V14.01,2013-01-17 01:46:00,
2013-01-16 17:51:00,50.8,21.3,30.36,NE,44,0.0,4.0,31,0.00,,---,0.00,VWS V14.01,2013-01-17 01:51:00,
2013-01-16 17:56:00,50.4,20.9,30.36,NE,44,0.0,4.0,31,0.00,,---,0.00,VWS V14.01,2013-01-17 01:56:00,
2013-01-16 18:01:00,50.1,20.7,30.36,NE,42,0.0,0.0,31,0.00,,---,0.00,VWS V14.01,2013-01-17 02:01:00,
2013-01-16 18:06:00,49.9,21.2,30.37,NE,40,0.0,0.0,32,0.00,,---,0.00,VWS V14.01,2013-01-17 02:06:00,
2013-01-16 18:11:00,49.5,20.9,30.37,NE,39,0.0,0.0,32,0.00,,---,0.00,VWS V14.01,2013-01-17 02:11:00,
2013-01-16 18:16:00,48.6,20.8,30.37,NNE,33,0.0,0.0,33,0.00,,---,0.00,VWS V14.01,2013-01-17 02:16:00,
2013-01-16 18:21:00,48.2,21.2,30.37,WSW,255,0.0,0.0,34,0.00,,---,0.00,VWS V14.01,2013-01-17 02:21:00,
2013-01-16 18:26:00,47.8,20.8,30.37,SW,222,0.0,0.0,34,0.00,,---,0.00,VWS V14.01,2013-01-17 02:26:00,
2013-01-16 18:31:00,47.3,21.0,30.37,WSW,250,0.0,1.0,35,0.00,,---,0.00,VWS V14.01,2013-01-17 02:31:00,
2013-01-16 18:36:00,46.9,20.7,30.37,WSW,250,0.0,2.0,35,0.00,,---,0.00,VWS V14.01,2013-01-17 02:36:00,
2013-01-16 18:41:00,46.7,21.2,30.37,West,266,0.0,2.0,36,0.00,,---,0.00,VWS V14.01,2013-01-17 02:41:00,
2013-01-16 18:46:00,46.9,20.7,30.37,West,273,0.0,2.0,35,0.00,,---,0.00,VWS V14.01,2013-01-17 02:46:00,
2013-01-16 18:51:00,47.0,20.8,30.37,West,280,0.0,2.0,35,0.00,,---,0.00,VWS V14.01,2013-01-17 02:51:00,
2013-01-16 18:57:00,46.6,20.4,30.37,WSW,248,0.0,2.0,35,0.00,,---,0.00,VWS V14.01,2013-01-17 02:57:00,
2013-01-16 19:02:00,46.7,20.5,30.37,SW,232,0.0,0.0,35,0.00,,---,0.00,VWS V14.01,2013-01-17 03:02:00,
2013-01-16 19:07:00,46.6,20.4,30.37,SW,226,0.0,0.0,35,0.00,,---,0.00,VWS V14.01,2013-01-17 03:07:00,
2013-01-16 19:12:00,46.6,20.4,30.37,SW,225,0.0,0.0,35,0.00,,---,0.00,VWS V14.01,2013-01-17 03:12:00,
2013-01-16 19:17:00,45.9,20.5,30.37,SSW,207,0.0,0.0,36,0.00,,---,0.00,VWS V14.01,2013-01-17 03:17:00,
2013-01-16 19:22:00,45.1,20.4,30.37,South,190,0.0,0.0,37,0.00,,---,0.00,VWS V14.01,2013-01-17 03:22:00,
2013-01-16 19:27:00,44.5,20.5,30.37,South,190,0.0,0.0,38,0.00,,---,0.00,VWS V14.01,2013-01-17 03:27:00,
2013-01-16 19:32:00,44.5,19.9,30.37,South,190,0.0,0.0,37,0.00,,---,0.00,VWS V14.01,2013-01-17 03:32:00,
2013-01-16 19:37:00,44.1,20.7,30.37,South,190,0.0,0.0,39,0.00,,---,0.00,VWS V14.01,2013-01-17 03:37:00,
2013-01-16 19:42:00,43.0,20.4,30.37,South,180,0.0,0.0,40,0.00,,---,0.00,VWS V14.01,2013-01-17 03:42:00,
2013-01-16 19:47:00,42.4,20.4,30.37,WSW,254,0.0,0.0,41,0.00,,---,0.00,VWS V14.01,2013-01-17 03:47:00,
2013-01-16 19:52:00,42.6,20.6,30.37,West,274,0.0,0.0,41,0.00,,---,0.00,VWS V14.01,2013-01-17 03:52:00,
2013-01-16 19:57:00,42.8,20.8,30.37,SW,219,0.0,0.0,41,0.00,,---,0.00,VWS V14.01,2013-01-17 03:57:00,
2013-01-16 20:02:00,42.8,20.2,30.38,SSW,202,0.0,0.0,40,0.00,,---,0.00,VWS V14.01,2013-01-17 04:02:00,
2013-01-16 20:07:00,42.4,20.4,30.38,SSW,202,0.0,0.0,41,0.00,,---,0.00,VWS V14.01,2013-01-17 04:07:00,
2013-01-16 20:12:00,41.9,20.5,30.38,SSE,158,0.0,0.0,42,0.00,,---,0.00,VWS V14.01,2013-01-17 04:12:00,
2013-01-16 20:17:00,41.7,20.3,30.38,SSE,160,0.0,0.0,42,0.00,,---,0.00,VWS V14.01,2013-01-17 04:17:00,
2013-01-16 20:22:00,42.0,20.0,30.38,SSE,159,0.0,0.0,41,0.00,,---,0.00,VWS V14.01,2013-01-17 04:22:00,
2013-01-16 20:27:00,42.2,20.2,30.37,SSE,159,0.0,0.0,41,0.00,,---,0.00,VWS V14.01,2013-01-17 04:27:00,
2013-01-16 20:32:00,42.2,20.2,30.37,SSE,164,0.0,0.0,41,0.00,,---,0.00,VWS V14.01,2013-01-17 04:32:00,
2013-01-16 20:37:00,42.3,19.7,30.37,SW,221,0.0,0.0,40,0.00,,---,0.00,VWS V14.01,2013-01-17 04:37:00,
2013-01-16 20:42:00,42.5,19.9,30.38,SSE,163,0.0,0.0,40,0.00,,---,0.00,VWS V14.01,2013-01-17 04:42:00,
2013-01-16 20:47:00,41.3,19.4,30.38,SSE,164,0.0,0.0,41,0.00,,---,0.00,VWS V14.01,2013-01-17 04:47:00,
2013-01-16 20:52:00,41.5,19.6,30.37,SSW,205,0.0,0.0,41,0.00,,---,0.00,VWS V14.01,2013-01-17 04:52:00,
2013-01-16 20:57:00,41.1,19.8,30.37,South,174,0.0,2.0,42,0.00,,---,0.00,VWS V14.01,2013-01-17 04:57:00,
2013-01-16 21:02:00,40.9,20.1,30.37,SE,141,0.0,0.0,43,0.00,,---,0.00,VWS V14.01,2013-01-17 05:02:00,
2013-01-16 21:03:00,40.8,20.0,30.37,SSE,160,0.0,0.0,43,0.00,,---,0.00,VWS V14.01,2013-01-17 05:03:00,
2013-01-16 21:08:00,40.8,20.0,30.37,SSW,204,0.0,0.0,43,0.00,,---,0.00,VWS V14.01,2013-01-17 05:08:00,
2013-01-16 21:10:00,41.2,19.9,30.37,SSW,204,0.0,0.0,42,0.00,,---,0.00,VWS V14.01,2013-01-17 05:10:00,
2013-01-16 21:15:00,40.9,19.6,30.37,SSW,198,0.0,0.0,42,0.00,,---,0.00,VWS V14.01,2013-01-17 05:15:00,
2013-01-16 21:20:00,40.7,20.0,30.37,SSW,198,0.0,0.0,43,0.00,,---,0.00,VWS V14.01,2013-01-17 05:20:00,
2013-01-16 21:25:00,39.9,19.8,30.37,SSE,162,0.0,0.0,44,0.00,,---,0.00,VWS V14.01,2013-01-17 05:25:00,
2013-01-16 21:30:00,39.4,19.8,30.37,SSE,162,0.0,0.0,45,0.00,,---,0.00,VWS V14.01,2013-01-17 05:30:00,
2013-01-16 21:35:00,39.6,19.5,30.37,SSE,162,0.0,0.0,44,0.00,,---,0.00,VWS V14.01,2013-01-17 05:35:00,
2013-01-16 21:40:00,39.7,19.6,30.36,SE,139,0.0,0.0,44,0.00,,---,0.00,VWS V14.01,2013-01-17 05:40:00,
2013-01-16 21:45:00,38.7,19.7,30.37,SE,142,0.0,0.0,46,0.00,,---,0.00,VWS V14.01,2013-01-17 05:45:00,
2013-01-16 21:50:00,38.1,19.7,30.36,SSE,160,0.0,0.0,47,0.00,,---,0.00,VWS V14.01,2013-01-17 05:50:00,
2013-01-16 21:55:00,37.8,19.9,30.37,SSE,167,0.0,0.0,48,0.00,,---,0.00,VWS V14.01,2013-01-17 05:55:00,
2013-01-16 22:00:00,37.5,19.6,30.37,SSW,201,0.0,0.0,48,0.00,,---,0.00,VWS V14.01,2013-01-17 06:00:00,
2013-01-16 22:05:00,37.2,19.8,30.37,South,188,0.0,0.0,49,0.00,,---,0.00,VWS V14.01,2013-01-17 06:05:00,
2013-01-16 22:10:00,37.6,19.7,30.37,South,187,0.0,0.0,48,0.00,,---,0.00,VWS V14.01,2013-01-17 06:10:00,
2013-01-16 22:15:00,37.4,19.5,30.37,SSE,153,0.0,0.0,48,0.00,,---,0.00,VWS V14.01,2013-01-17 06:15:00,
2013-01-16 22:20:00,37.2,19.8,30.37,SSW,195,0.0,0.0,49,0.00,,---,0.00,VWS V14.01,2013-01-17 06:20:00,
2013-01-16 22:25:00,37.1,19.7,30.36,SSW,209,0.0,0.0,49,0.00,,---,0.00,VWS V14.01,2013-01-17 06:25:00,
2013-01-16 22:30:00,36.7,19.8,30.36,SSW,195,0.0,0.0,50,0.00,,---,0.00,VWS V14.01,2013-01-17 06:30:00,
2013-01-16 22:35:00,36.5,19.6,30.36,SSW,195,0.0,0.0,50,0.00,,---,0.00,VWS V14.01,2013-01-17 06:35:00,
2013-01-16 22:40:00,36.2,19.8,30.36,SSW,206,0.0,0.0,51,0.00,,---,0.00,VWS V14.01,2013-01-17 06:40:00,
2013-01-16 22:45:00,36.3,19.5,30.36,SSW,210,0.0,0.0,50,0.00,,---,0.00,VWS V14.01,2013-01-17 06:45:00,
2013-01-16 22:50:00,36.7,19.8,30.36,SW,224,0.0,0.0,50,0.00,,---,0.00,VWS V14.01,2013-01-17 06:50:00,
2013-01-16 22:55:00,36.8,19.5,30.36,SSE,163,0.0,0.0,49,0.00,,---,0.00,VWS V14.01,2013-01-17 06:55:00,
2013-01-16 23:00:00,36.4,19.5,30.36,SE,142,0.0,0.0,50,0.00,,---,0.00,VWS V14.01,2013-01-17 07:00:00,
2013-01-16 23:05:00,36.5,19.6,30.36,ESE,112,0.0,0.0,50,0.00,,---,0.00,VWS V14.01,2013-01-17 07:05:00,
2013-01-16 23:10:00,36.2,19.4,30.36,SSE,166,0.0,0.0,50,0.00,,---,0.00,VWS V14.01,2013-01-17 07:10:00,
2013-01-16 23:15:00,36.3,19.5,30.36,SSE,165,0.0,0.0,50,0.00,,---,0.00,VWS V14.01,2013-01-17 07:15:00,
2013-01-16 23:20:00,36.4,19.5,30.36,SSE,165,0.0,0.0,50,0.00,,---,0.00,VWS V14.01,2013-01-17 07:20:00,
2013-01-16 23:25:00,36.9,19.5,30.37,SE,133,0.0,0.0,49,0.00,,---,0.00,VWS V14.01,2013-01-17 07:25:00,
2013-01-16 23:30:00,37.1,19.7,30.37,SSW,195,0.0,0.0,49,0.00,,---,0.00,VWS V14.01,2013-01-17 07:30:00,
2013-01-16 23:35:00,37.4,19.0,30.37,ESE,117,0.0,4.0,47,0.00,,---,0.00,VWS V14.01,2013-01-17 07:35:00,
2013-01-16 23:40:00,37.2,19.3,30.37,NE,38,0.0,4.0,48,0.00,,---,0.00,VWS V14.01,2013-01-17 07:40:00,
2013-01-16 23:45:00,37.3,19.4,30.37,West,260,0.0,4.0,48,0.00,,---,0.00,VWS V14.01,2013-01-17 07:45:00,
2013-01-16 23:50:00,37.0,19.1,30.37,SE,135,0.0,4.0,48,0.00,,---,0.00,VWS V14.01,2013-01-17 07:50:00,
2013-01-16 23:55:00,36.9,19.1,30.37,SE,142,0.0,4.0,48,0.00,,---,0.00,VWS V14.01,2013-01-17 07:55:00,